Regional Weather Roundup
Issued by NWS

Home | Current Version | Previous Version | Graphics & Text | Print | Product List | Glossary On
Versions: 1 2 3 4 5 6 7 8 9 10 11 12 13 14 15 16 17 18 19 20 21 22 23 24 25 26 27 28 29 30 31 32 33 34 35 36 37 38 39 40 41 42 43 44 45 46 47
000
ASUS45 KSLC 012310
RWRUT

UTAH REGIONAL WEATHER ROUNDUP
NATIONAL WEATHER SERVICE SALT LAKE CITY UT
500 PM MDT WED APR 01 2015

UTZ001>011-023>025-020000-

NORTHERN UTAH

CITY           SKY/WX    TMP DP  RH WIND       PRES   REMARKS
BRIGHAM CITY   SUNNY     51  11  19 S5        30.02F
HILL AFB       SUNNY     48  17  28 VRB2      30.03F
LOGAN          MOSUNNY   52   4  14 W14       30.00F
OGDEN          SUNNY     49  15  25 VRB7      30.03F
PROVO AIRPORT  MOSUNNY   52  16  24 NW12      30.02F
SALT LAKE CITY PTSUNNY   53   8  16 NW13G21   30.03F
VERNAL         PTSUNNY   58   2  10 W17G32    29.87S
WENDOVER       MOSUNNY   52   9  17 SE10      30.03F
HEBER CITY     SUNNY     52   5  15 SW15      29.98F
WEST JORDAN    SUNNY     48  12  23 NW15G21   30.04F

$$

UTZ012>022-026-027-020000-

SOUTHERN/CENTRAL UTAH

CITY           SKY/WX    TMP DP  RH WIND       PRES   REMARKS
BLANDING       MOSUNNY   66  18  15 W14G23    29.94S
BRYCE CANYON   SUNNY     56  19  23 W16G23    29.99F
CEDAR CITY     SUNNY     59  15  18 VRB6      29.95F
DELTA          SUNNY     54  -1  10 N3        30.01F
HANKSVILLE     SUNNY     68  16  13 N3        29.86F
MILFORD        SUNNY     57  15  19 N10       29.96F
MOAB/CYNLANDS  SUNNY     66   8  10 NW16      29.84F
PRICE          SUNNY     57   7  13 W13       29.93S
ST GEORGE      CLEAR     75  19  12 SW9G16    29.86F
KANAB          SUNNY     66  10  11 W16G23    29.95F

$$

REGIONAL REPORTS     COLORADO/ARIZONA

CITY           SKY/WX    TMP DP  RH WIND       PRES   REMARKS
CRAIG, CO      PTSUNNY   60   7  12 W25G33    29.86S
GRAND JUNCTION SUNNY     66   8  10 W25G35    29.82F
RIFLE          MOSUNNY   64  19  17 N9G17     29.82F
MONTROSE       PTSUNNY   63  23  21 S17G25    29.86F
CORTEZ         SUNNY     69  12  11 W22G28    29.87F
PAGE, AZ       SUNNY     75  -6   4 W12G22    29.84F
GRAND CANYON   MOSUNNY   65  11  12 W10G24    29.97F
KINGMAN        SUNNY     77  12   8 SW9       29.88F
FLAGSTAFF      MOSUNNY   63  23  21 SW23G29   30.00F

$$

REGIONAL REPORTS    NEVADA/IDAHO/WYOMING

CITY           SKY/WX    TMP DP  RH WIND       PRES   REMARKS
LAS VEGAS, NV  MOSUNNY   82   4   5 CALM      29.78F
ELY            MOSUNNY   55  -4   9 S10G18    29.95F
ELKO           PTSUNNY   49   1  14 W12       30.02F
POCATELLO, ID  MOSUNNY   50   7  17 W24G33    30.02F
BURLEY         LGT RAIN  49  10  20 W20G28    30.04F
EVANSTON, WY   SUNNY     41   5  22 W14G21    30.00F
ROCK SPRINGS   MOSUNNY   45   1  16 W20G30    29.95S
KEMMERER       SUNNY     39   3  22 W22G30    29.98S WCI  29

$$



USA.gov is the U.S. government's official web portal to all federal, state and local government web resources and services.